This is the latest recevied weather packets stored in our database for station/object EW8324. If no packets are shown the sender has not sent any weather packets the latest 10 day(s).
| Time | Temp. | Humidity | Pressure | Rain* | Wind** | Luminosity | Snow |
|---|---|---|---|---|---|---|---|
| 1777986045 | 23.33° C | 83% | 1004.7 hPa | 0 mm | - | 65 W/m² | - |
| 1777985741 | 23.33° C | 83% | 1004.3 hPa | 0 mm | - | 74 W/m² | - |
| 1777985444 | 23.33° C | 83% | 1004.2 hPa | 0 mm | - | 100 W/m² | - |
| 1777985142 | 22.78° C | 83% | 1004.1 hPa | 0 mm | - | 70 W/m² | - |
| 1777984843 | 22.78° C | 82% | 1004.4 hPa | 0 mm | - | 69 W/m² | - |
| 1777984542 | 22.78° C | 82% | 1004.6 hPa | 0 mm | - | 60 W/m² | - |
| 1777984247 | 22.78° C | 82% | 1004.5 hPa | 0 mm | - | 44 W/m² | - |
| 1777983941 | 22.78° C | 82% | 1004.5 hPa | 0 mm | - | 67 W/m² | - |
| 1777983646 | 22.78° C | 82% | 1004.6 hPa | 0 mm | - | 39 W/m² | - |
| 1777983341 | 22.78° C | 82% | 1004.4 hPa | 0 mm | - | 21 W/m² | - |
| 1777983106 | 22.78° C | 83% | 1004.5 hPa | 0 mm | - | 12 W/m² | - |
| 1777982741 | 22.22° C | 83% | 1004.1 hPa | 0 mm | - | 14 W/m² | - |
| 1777982446 | 22.22° C | 83% | 1004.1 hPa | 0 mm | - | 12 W/m² | - |
| 1777982201 | 22.22° C | 83% | 1004 hPa | 0 mm | - | 12 W/m² | - |
| 1777981842 | 22.22° C | 83% | 1003.9 hPa | 0 mm | - | 7 W/m² | - |
| 1777981601 | 22.22° C | 83% | 1004 hPa | 0 mm | - | 0 W/m² | - |
| 1777981242 | 22.22° C | 83% | 1004.4 hPa | 0 mm | - | 0 W/m² | - |
| 1777980939 | 22.22° C | 83% | 1004.5 hPa | 0 mm | - | 0 W/m² | - |
| 1777980644 | 22.22° C | 83% | 1004.3 hPa | 0 mm | - | 0 W/m² | - |
| 1777980341 | 22.22° C | 83% | 1004.3 hPa | 0 mm | - | - | - |
| 1777980043 | 22.22° C | 83% | 1004.2 hPa | 0 mm | - | 0 W/m² | - |
| 1777979742 | 22.22° C | 83% | 1004.1 hPa | 0 mm | - | 0 W/m² | - |
| 1777979441 | 22.22° C | 83% | 1004.1 hPa | 0 mm | - | 0 W/m² | - |
| 1777979153 | 22.22° C | 83% | 1004.1 hPa | 0 mm | - | 0 W/m² | - |
| 1777978843 | 22.22° C | 83% | 1004.1 hPa | 0 mm | - | 0 W/m² | - |
* Rain latest hour (hover to see other rain measurements)
** Current wind speed in m/s (hover to see current wind gust speed)